AirNav   Phillips 66 Aviation Fuel
 
 411 users online  

D20 Yale Airport
Yale, Michigan, USA

GOING TO YALE?


FAA INFORMATION EFFECTIVE 13 SEPTEMBER 2018

Location

FAA Identifier: D20
Lat/Long: 43-06-45.0940N / 082-47-14.7460W
43-06.751567N / 082-47.245767W
43.1125261 / -82.7874294
(estimated)
Elevation: 814 ft. / 248 m (estimated)
Variation: 06W (1985)
From city: 1 mile SE of YALE, MI
Time zone: UTC -4 (UTC -5 during Standard Time)
Zip code: 48097

Airport Operations

Airport use: Open to the public
Activation date: 07/1948
Control tower: no
ARTCC: CLEVELAND CENTER
FSS: LANSING FLIGHT SERVICE STATION
NOTAMs facility: LAN (NOTAM-D service available)
Attendance: IREG
Wind indicator: yes
Segmented circle: yes

Airport Communications

CTAF: 122.9
WX AWOS-3 at PHN (17 nm SE): 118.375 (810-364-7787)

Airport Services

Parking: tiedowns
Airframe service: NONE
Bottled oxygen: NONE
Bulk oxygen: NONE

Runway Information

Runway 9/27

Dimensions: 2300 x 110 ft. / 701 x 34 m
Surface: turf, in good condition
Runway edge markings: 09/27 & DSPLCD THLDS MKD WITH CONES.
RUNWAY 9  RUNWAY 27
Latitude: 43-06.751333N43-06.751333N
Longitude: 082-47.504000W082-46.987167W
Elevation: 814.0 ft.814.0 ft.
Traffic pattern: leftleft
Displaced threshold: 315 ft.300 ft.
Runway end identifier lights: nono
Obstructions: 15 ft. road, 30 ft. from runway, 2:1 slope to clear
APCH RATIO 27:1 AT DSPLCD THLD, +25 FT POWERLINE 720 FT DSTC.
15 ft. brush, 34 ft. from runway, 45 ft. left and right of centerline, 2:1 slope to clear
APCH RATIO 25:1 AT DSPLCD THLD. +68 FT TREES 1700 FT DSTC.

Airport Ownership and Management from official FAA records

Ownership: Privately-owned
Owner: JERRY L. NORRIS
7381 BROCKWAY RD
YALE, MI 48097
Phone 810-387-2173
Manager: JERRY L. NORRIS
7381 BROCKWAY RD
YALE, MI 48097
Phone 810-387-2173

Airport Operational Statistics

Aircraft based on the field: 1
Single engine airplanes: 1
    
Aircraft operations: 100/year *
100% transient general aviation
* for 12-month period ending 31 December 2017

Additional Remarks

RY 09 HAS +25 FT PLINE 345 FT DIST.
RY 09/27 SOFT IN SPRING.

Instrument Procedures

There are no published instrument procedures at D20.

Some nearby airports with instrument procedures:

KPHN - St Clair County International Airport (17 nm SE)
77G - Marlette Airport (18 nm NW)
D98 - Romeo State Airport (21 nm SW)
D95 - Dupont-Lapeer Airport (21 nm W)
57D - Ray Community Airport (23 nm S)
 
Loc | Ops | Rwys | IFR | FBO | Links
Com | Nav | Svcs | Stats | Notes


 
Area around D20 (Yale Airport)
 
Road maps at: MapQuest Bing Google
 
Aerial photo
WARNING: Photo may not be current or correct
Aerial photo of D20 (Yale Airport)
Photo by Katie D.
Photo taken 09-Jul-2009
looking East.

Do you have a better or more recent aerial photo of Yale Airport that you would like to share? If so, please send us your photo.

 
Sectional chart

 
Airport distance calculator
Flying to Yale Airport? Find the distance to fly.

From to D20

Sunrise and sunset
Times for 20-Sep-2018
 Local
(UTC-4)
 Zulu
(UTC)
Morning civil twilight06:4910:49
Sunrise07:1711:17
Sunset19:3223:32
Evening civil twilight20:0000:00

Current date and time
Zulu (UTC)  20-Sep-2018 10:05:43
Local (UTC-4)  20-Sep-2018 06:05:43
 
METAR
KPHN 
17nm SE 
200955Z AUTO 00000KT 10SM SCT100 14/13 A3008 RMK AO2
KD95 
21nm W 
200955Z AUTO 00000KT 10SM CLR 15/14 A3008 RMK AO2 T01510139
CYZR 
22nm E 
200900Z AUTO 00000KT 9SM OVC095 15/14 A3009 RMK SLP190
KMTC 
30nm S 
192255Z 07006KT 10SM FEW040 SCT120 BKN220 21/16 A3007 RMK AO2A SLP186 ALSTG/SLP ESTMD T02060158 $
TAF
CYZR 
22nm E 
200738Z 2008/2020 VRB03KT P6SM BKN100 FM201200 VRB03KT P6SM BKN030 TEMPO 2012/2020 P6SM -SHRA OVC020 BECMG 2012/2014 15010KT RMK FCST BASED ON AUTO OBS. NXT FCST BY 201400Z
NOTAMs
Click for the latest NOTAMs
NOTAMs are issued by the DoD/FAA and will open in a separate window not controlled by AirNav.

 

 
 

Would you like to see your business listed on this page?

 If your business provides an interesting product or service to pilots, flight crews, aircraft, or users of the Yale Airport, you should consider listing it here.  To start the listing process, click on the button below
 
Add a business
 

Other Pages about Yale Airport

Page from the Michigan Airport Directory (PDF)
 
Update a link
 
Copyright © AirNav, LLC. All rights reserved. Privacy Policy  Contact